Regional Weather Roundup
Issued by NWS Goodland, KS

Home | Current Version | Previous Version | Graphics & Text | Print | Product List | Glossary On
Versions: 1 2 3 4 5 6 7 8 9 10 11 12 13 14 15 16 17 18 19 20 21 22 23 24 25 26 27 28 29 30 31 32 33 34 35 36 37 38 39 40 41 42 43 44 45 46 47 48 49 50
000
ASUS43 KGLD 060308
RWRGLD

GOODLAND FORECAST AREA HOURLY WEATHER ROUNDUP
NATIONAL WEATHER SERVICE GOODLAND KS
800 PM MST THU MAR 05 2015

...OFFICIAL OBSERVATIONS...

CITY           SKY/WX    TMP DP  RH WIND       PRES   REMARKS
GOODLAND KS    PTCLDY    32  18  56 W9        30.27S
HILL CITY KS   PTCLDY    34  11  38 SW7       30.28S
IMPERIAL NEB     N/A     33  12  41 W12       30.24R
MCCOOK NEB     CLEAR     32  14  47 SW9       30.24R
AKRON CO       CLEAR     31  16  54 N5        30.26R
BURLINGTON CO  CLEAR     27  20  75 W8        30.27S
LIMON CO       CLEAR     12   8  84 N6        30.28R
$$

...UNOFFICIAL OBSERVATIONS...

CITY           SKY/WX    TMP DP  RH WIND       PRES   REMARKS
COLBY KS       CLEAR     28  23  80 SW9       30.27S
GOVE KS          N/A     34  32  92 MISG        N/A
NORTON KS      CLEAR     28   7  40 SW7       30.25S
SHARON SPRINGS   N/A     31  20  62 CALM        N/A
YUMA CO          N/A     33  17  51 N5          N/A
$$



USA.gov is the U.S. government's official web portal to all federal, state and local government web resources and services.